AAL3082 KSYR-KDCA

Flight info

Callsign AAL3082
Flight time N/A
Altitude 36000
Route SYR PTAKI STUBN PSB SKILS5
Aircraft A319/M-SDE3FGHIRWY/LB1

Departure

Time 2026-04-28 15:51
Airport Syracuse Hancock International Airport (KSYR)

Arrival

Time N/A
Airport Ronald Reagan Washington National Airport (KDCA)
Time Latitude Longitude Altitude Speed Heading
2026-04-28 15:19 43.11275 -76.10884 424 ft 0 kts 296°
2026-04-28 15:39 43.11272 -76.10875 419 ft 4 kts 292°
2026-04-28 15:39 43.11268 -76.10843 423 ft 4 kts 240°
2026-04-28 15:39 43.11281 -76.10831 416 ft 1 kts 176°
2026-04-28 15:40 43.11285 -76.10831 418 ft 0 kts 176°
2026-04-28 15:45 43.11271 -76.10830 415 ft 5 kts 176°
2026-04-28 15:46 43.11229 -76.10823 419 ft 7 kts 163°
2026-04-28 15:46 43.11204 -76.10772 415 ft 7 kts 96°
2026-04-28 15:46 43.11237 -76.10727 420 ft 8 kts
2026-04-28 15:46 43.11293 -76.10734 417 ft 9 kts 356°
2026-04-28 15:47 43.11367 -76.10739 421 ft 13 kts 357°
2026-04-28 15:47 43.11456 -76.10744 424 ft 13 kts 357°
2026-04-28 15:47 43.11546 -76.10750 419 ft 9 kts 358°
2026-04-28 15:47 43.11601 -76.10784 424 ft 9 kts 314°
2026-04-28 15:48 43.11649 -76.10853 424 ft 11 kts 314°
2026-04-28 15:48 43.11704 -76.10932 420 ft 12 kts 314°
2026-04-28 15:48 43.11763 -76.11015 423 ft 12 kts 314°
2026-04-28 15:48 43.11825 -76.11102 419 ft 13 kts 314°
2026-04-28 15:49 43.11888 -76.11191 425 ft 13 kts 314°
2026-04-28 15:49 43.11952 -76.11282 425 ft 13 kts 313°
2026-04-28 15:49 43.11974 -76.11314 425 ft 1 kts 313°
2026-04-28 15:49 43.11998 -76.11348 425 ft 8 kts 317°
2026-04-28 15:50 43.12050 -76.11365 426 ft 8 kts 16°
2026-04-28 15:50 43.12083 -76.11320 422 ft 6 kts 47°
2026-04-28 15:50 43.12107 -76.11284 428 ft 6 kts 48°
2026-04-28 15:50 43.12096 -76.11240 426 ft 2 kts 135°
2026-04-28 15:51 43.12085 -76.11224 430 ft 10 kts 135°
2026-04-28 15:51 43.11844 -76.10884 422 ft 88 kts 134°
2026-04-28 15:51 43.11266 -76.10067 435 ft 147 kts 134°
2026-04-28 15:51 43.10548 -76.09043 1076 ft 147 kts 134°
2026-04-28 15:52 43.09854 -76.08040 1888 ft 143 kts 141°
2026-04-28 15:52 43.09150 -76.07041 2527 ft 155 kts 142°
2026-04-28 15:52 43.08340 -76.05918 2936 ft 178 kts 142°
2026-04-28 15:52 43.07372 -76.04615 3257 ft 212 kts 146°
2026-04-28 15:53 43.05962 -76.03854 3641 ft 230 kts 183°
2026-04-28 15:53 43.04465 -76.04436 4909 ft 225 kts 207°
2026-04-28 15:53 43.03269 -76.05853 5925 ft 233 kts 221°
2026-04-28 15:53 43.02140 -76.07441 6820 ft 239 kts 224°
2026-04-28 15:54 43.00984 -76.09112 7700 ft 245 kts 224°
2026-04-28 15:54 42.99796 -76.10831 8547 ft 253 kts 225°
2026-04-28 15:54 42.98576 -76.12595 9398 ft 259 kts 225°
2026-04-28 15:54 42.97324 -76.14399 10268 ft 266 kts 225°
2026-04-28 15:55 42.95994 -76.16305 10633 ft 289 kts 223°
2026-04-28 15:55 42.94564 -76.18344 11156 ft 304 kts 224°
2026-04-28 15:55 42.93076 -76.20459 11806 ft 313 kts 224°
2026-04-28 15:55 42.91554 -76.22623 12573 ft 319 kts 224°
2026-04-28 15:56 42.90017 -76.24815 13411 ft 321 kts 223°
2026-04-28 15:56 42.88451 -76.27037 14065 ft 329 kts 223°
2026-04-28 15:56 42.86863 -76.29290 14830 ft 330 kts 224°
2026-04-28 15:56 42.85268 -76.31550 15554 ft 332 kts 225°
2026-04-28 15:57 42.83657 -76.33840 16265 ft 336 kts 225°
2026-04-28 15:57 42.82043 -76.36131 17041 ft 336 kts 226°
2026-04-28 15:57 42.80407 -76.38443 17653 ft 342 kts 226°
2026-04-28 15:57 42.78743 -76.40795 18280 ft 347 kts 226°
2026-04-28 15:58 42.77059 -76.43173 18867 ft 351 kts 226°
2026-04-28 15:58 42.75351 -76.45581 19443 ft 355 kts 226°
2026-04-28 15:58 42.73628 -76.48010 20029 ft 359 kts 227°
2026-04-28 15:58 42.71883 -76.50468 20606 ft 363 kts 227°
2026-04-28 15:59 42.70125 -76.52940 21231 ft 365 kts 227°
2026-04-28 15:59 42.68345 -76.55441 21774 ft 370 kts 227°
2026-04-28 15:59 42.66553 -76.57957 22357 ft 372 kts 227°
2026-04-28 15:59 42.64598 -76.60315 22873 ft 380 kts 218°
2026-04-28 16:00 42.62330 -76.62203 23378 ft 385 kts 213°
2026-04-28 16:00 42.59980 -76.63997 23850 ft 390 kts 212°
2026-04-28 16:00 42.57641 -76.65785 24287 ft 392 kts 212°
2026-04-28 16:00 42.55258 -76.67608 24730 ft 395 kts 212°
2026-04-28 16:01 42.52863 -76.69444 25174 ft 396 kts 213°
2026-04-28 16:01 42.50454 -76.71288 25598 ft 399 kts 212°
2026-04-28 16:01 42.48032 -76.73141 26028 ft 401 kts 212°
2026-04-28 16:01 42.45597 -76.75004 26429 ft 403 kts 212°
2026-04-28 16:02 42.43144 -76.76880 26828 ft 406 kts 212°
2026-04-28 16:02 42.40674 -76.78765 27234 ft 409 kts 212°
2026-04-28 16:02 42.38186 -76.80658 27646 ft 411 kts 212°
2026-04-28 16:02 42.35682 -76.82560 28069 ft 413 kts 212°
2026-04-28 16:03 42.33168 -76.84470 28492 ft 415 kts 212°
2026-04-28 16:03 42.30647 -76.86387 28865 ft 417 kts 212°
2026-04-28 16:03 42.28113 -76.88311 29363 ft 417 kts 213°
2026-04-28 16:03 42.25584 -76.90228 29801 ft 417 kts 213°
2026-04-28 16:04 42.23049 -76.92151 30185 ft 419 kts 213°
2026-04-28 16:04 42.20508 -76.94079 30513 ft 420 kts 213°
2026-04-28 16:04 42.17959 -76.96010 30891 ft 421 kts 213°
2026-04-28 16:04 42.15401 -76.97943 31220 ft 421 kts 213°
2026-04-28 16:05 42.12838 -76.99874 31542 ft 422 kts 213°
2026-04-28 16:05 42.10278 -77.01796 31982 ft 419 kts 213°
2026-04-28 16:05 42.07755 -77.03726 32464 ft 416 kts 215°
2026-04-28 16:05 42.05293 -77.05728 32947 ft 412 kts 216°
2026-04-28 16:06 42.02877 -77.07774 33460 ft 408 kts 217°
2026-04-28 16:06 42.00497 -77.09825 33956 ft 404 kts 217°
2026-04-28 16:06 41.98140 -77.11856 34413 ft 401 kts 217°
2026-04-28 16:06 41.95794 -77.13861 34840 ft 399 kts 217°
2026-04-28 16:07 41.93480 -77.15815 35232 ft 397 kts 217°
2026-04-28 16:07 41.91138 -77.17771 35599 ft 395 kts 217°
2026-04-28 16:07 41.86472 -77.21643 36072 ft 394 kts 217°
2026-04-28 16:08 41.84142 -77.23574 36131 ft 392 kts 218°
2026-04-28 16:08 41.79568 -77.27365 36096 ft 383 kts 218°
2026-04-28 16:09 41.72783 -77.33001 36103 ft 382 kts 218°
2026-04-28 16:10 41.65981 -77.38638 36099 ft 385 kts 218°
2026-04-28 16:10 41.59141 -77.44288 36111 ft 385 kts 218°
2026-04-28 16:11 41.49072 -77.49128 36094 ft 427 kts 178°
2026-04-28 16:12 41.43288 -77.46728 36088 ft 438 kts 171°
2026-04-28 16:12 41.40393 -77.45419 36096 ft 440 kts 171°
2026-04-28 16:13 41.31719 -77.41478 36100 ft 441 kts 171°
2026-04-28 16:14 41.20049 -77.36312 36105 ft 443 kts 171°
2026-04-28 16:15 41.08311 -77.31131 36119 ft 445 kts 171°
2026-04-28 16:15 41.02425 -77.28533 36110 ft 446 kts 171°
2026-04-28 16:16 40.93561 -77.24630 36124 ft 448 kts 171°
2026-04-28 16:17 40.84668 -77.20721 36118 ft 450 kts 171°